Regional Weather Roundup
Issued by NWS

Home | Current Version | Previous Version | Text Only | Print | Product List | Glossary On
Versions: 1 2 3 4 5 6 7 8 9 10 11 12 13 14 15 16 17 18 19 20 21 22 23 24 25 26 27 28 29 30 31 32 33 34 35 36 37 38 39 40 41 42 43 44 45 46 47 48 49 50
000
ASUS44 KOUN 220710
RWROK

WEATHER ROUNDUP FOR OKLAHOMA
NATIONAL WEATHER SERVICE NORMAN OK
100 AM CST WED FEB 22 2017

NOTE: "FAIR" INDICATES FEW OR NO CLOUDS BELOW 12,000 FEET WITH NO
      SIGNIFICANT WEATHER AND/OR OBSTRUCTIONS TO VISIBILITY.

OKZ001>007-009>012-014-015-017-220800-
NORTHWEST OKLAHOMA AND THE PANHANDLE

CITY           SKY/WX    TMP DP  RH WIND       PRES   REMARKS
GAGE           CLEAR     43  27  53 W5        29.90F
GUYMON         CLEAR     50  26  39 W8        29.92S
ENID/WOODRING  CLEAR     43  41  93 SE3       29.90F
$$

OKZ016-021>023-033>039-044-045-220800-
SOUTHWEST OKLAHOMA

CITY           SKY/WX    TMP DP  RH WIND       PRES   REMARKS
LAWTON/REGL    PTCLDY    44  41  89 CALM      29.94F
LAWTON/FT SILL CLEAR     48  40  74 CALM      29.92F
FREDERICK      PTCLDY    51  42  71 S3        29.91F
CLINTON        CLEAR     49  39  68 SW12      29.94S
HOBART         CLEAR     48  40  73 S8        29.94S
ALTUS AFB      CLEAR     43  39  85 E3        29.93F
$$

OKZ018>020-024>031-220800-
CENTRAL OKLAHOMA

CITY           SKY/WX    TMP DP  RH WIND       PRES   REMARKS
OKLAHOMA CITY  CLEAR     48  37  65 S5        29.93F
OKC/WILEY POST CLEAR     47  38  71 S6        29.93F
OKC/TINKER AFB CLEAR     53  35  51 S5        29.92F
STILLWATER     CLEAR     38  36  92 CALM      29.91F
GUTHRIE        CLEAR     42  38  85 S5        29.92F
$$

OKZ008-013-054>072-220800-
NORTHEAST OKLAHOMA

CITY           SKY/WX    TMP DP  RH WIND       PRES   REMARKS
TULSA          CLEAR     50  45  83 CALM      29.91F
TULSA/JONES    CLEAR     45  42  89 CALM      29.93F
PONCA CITY     CLEAR     44  37  76 CALM      29.90F
BARTLESVILLE   CLEAR     39  37  92 CALM      29.93F
MUSKOGEE       CLEAR     53  48  83 CALM      29.93S
$$

OKZ032-040>043-046>053-073>077-220800-
SOUTH CENTRAL/SOUTHEAST OKLAHOMA

CITY           SKY/WX    TMP DP  RH WIND       PRES   REMARKS
ARDMORE/DWNTWN CLEAR     45  37  76 CALM      29.94S
MCALESTER      PTCLDY    47  44  90 CALM      29.93F
$$





USA.gov is the U.S. government's official web portal to all federal, state and local government web resources and services.